SCP
0 0 0 0 0 0 0 0 0 0 0 0 0 0 0 0 0 0 0 0 0 0
0 0 0 0 0 0 0 0 0 0 0 0 0 0 0 0 0 0 0 0 0 0
0 0 0 0 0 0 0 0 0 0 0 0 0 0 0 0 0 0 0 0 0 0
0 0 0 0 0 0 0 0 0 0 0 0 0 0 0 0 0 0 0 0 0 0
0 0 0 0 0 0 0 0 0 0 0 0 0 0 0 0 0 0 0 0 0 0
0 0 0 0 0 0 0 0 0 0 0 0 0 0 0 0 0 0 0 0 0 0
0 0 0 0 0 0 0 0 0 0 0 0 0 0 0 0 0 0 0 0 0 0
0 0 0 0 0 0 0 0 0 0 0 0 0 0 0 0 0 0 0 0 0 0
0 0 0 0 0 0 0 0 0 0 0 0 0 0 0 0 0 0 0 0 0 0
0 0 0 0 0 0 0 0 0 0 0 0 0 0 0 0 0 0 0 0 0 0
0 0 0 0 0 0 0 0 0 0 0 0 0 0 0 0 0 0 0 0 0 0
0 0 0 0 0 0 0 0 0 0 0 0 0 0 0 0 0 0 0 0 0 0
0 0 0 0 0 0 0 0 0 0 0 0 0 0 0 0 0 0 0 0 0 0
0 0 0 0 0 0 0 0 0 0 0 0 0 0 0 0 0 0 0 0 0 0
Wind_Speed_500mb
70 67 57 52 47 43 39 37 34 30 24 20 18 21 22 24 25 26 22 12 10 8
72 69 60 56 50 43 37 36 34 32 27 22 21 22 22 23 25 25 20 14 13 8
75 70 61 57 63 56 43 41 38 33 30 28 25 24 23 22 24 22 18 15 12 10
75 69 67 60 65 62 49 46 42 37 34 31 28 27 24 23 24 21 16 14 15 14
74 70 73 65 68 63 53 50 47 45 40 34 31 27 25 24 24 20 14 12 13 14
83 77 78 69 64 64 59 58 56 51 46 39 34 30 26 24 21 18 12 11 14 10
84 82 78 72 67 66 62 64 63 55 46 38 36 30 26 21 18 17 13 13 13 11
81 80 77 74 71 66 65 66 59 53 45 41 36 29 25 23 19 17 16 15 15 17
83 81 79 73 70 68 69 64 57 51 42 40 34 28 25 22 21 19 17 17 18 21
84 80 74 70 68 69 67 61 55 48 45 39 32 27 23 23 23 22 20 20 20 19
82 76 74 70 69 66 60 56 53 50 45 37 31 28 25 22 23 24 24 22 22 23
80 78 75 71 61 60 56 53 51 48 42 34 29 25 22 22 21 21 22 22 21 25
77 76 72 67 59 53 50 51 52 46 38 30 28 24 23 20 20 21 23 25 27 30
71 67 65 61 52 51 52 55 51 44 38 32 26 24 20 17 17 19 24 24 24 26
Wind_Direction_500mb
215 220 227 221 216 217 224 227 228 237 243 254 263 275 292 309 320 327 332 340 332 313
215 220 226 222 222 222 228 230 232 238 239 248 264 275 292 304 315 321 323 326 331 322
215 221 224 225 227 221 229 228 231 232 239 247 264 274 286 299 310 315 315 315 316 310
212 217 222 225 227 221 227 232 231 232 237 247 259 268 283 297 304 306 305 305 304 307
213 216 220 222 221 221 227 233 233 231 238 247 255 263 279 292 295 298 298 297 301 312
214 216 221 220 218 222 225 231 226 229 239 248 253 260 276 287 290 286 286 291 307 321
217 219 221 223 224 223 224 225 222 227 236 245 247 260 271 276 275 283 286 295 302 320
221 223 223 223 226 224 220 217 221 228 235 243 247 259 269 275 273 277 280 290 302 315
219 223 224 223 223 217 214 216 225 231 237 239 247 255 264 263 267 266 269 281 290 300
220 222 223 221 219 216 216 220 228 233 235 237 243 251 246 244 252 252 259 269 275 296
221 220 218 217 217 217 221 230 233 233 231 234 240 243 243 235 240 244 258 267 275 289
219 218 216 217 223 222 224 226 228 228 231 233 242 246 239 238 237 251 264 267 265 271
219 218 217 219 223 232 237 230 224 226 230 234 240 242 240 241 244 254 263 265 271 278
217 218 221 222 221 236 234 221 221 225 231 235 237 242 239 245 242 255 262 269 279 284
Wind_Speed_850mb
70 67 57 52 47 43 39 37 34 30 24 20 18 21 22 24 25 26 22 12 10 8
72 69 60 56 50 43 37 36 34 32 27 22 21 22 22 23 25 25 20 14 13 8
75 70 61 57 63 56 43 41 38 33 30 28 25 24 23 22 24 22 18 15 12 10
75 69 67 60 65 62 49 46 42 37 34 31 28 27 24 23 24 21 16 14 15 14
74 70 73 65 68 63 53 50 47 45 40 34 31 27 25 24 24 20 14 12 13 14
83 77 78 69 64 64 59 58 56 51 46 39 34 30 26 24 21 18 12 11 14 10
84 82 78 72 67 66 62 64 63 55 46 38 36 30 26 21 18 17 13 13 13 11
81 80 77 74 71 66 65 66 59 53 45 41 36 29 25 23 19 17 16 15 15 17
83 81 79 73 70 68 69 64 57 51 42 40 34 28 25 22 21 19 17 17 18 21
84 80 74 70 68 69 67 61 55 48 45 39 32 27 23 23 23 22 20 20 20 19
82 76 74 70 69 66 60 56 53 50 45 37 31 28 25 22 23 24 24 22 22 23
80 78 75 71 61 60 56 53 51 48 42 34 29 25 22 22 21 21 22 22 21 25
77 76 72 67 59 53 50 51 52 46 38 30 28 24 23 20 20 21 23 25 27 30
71 67 65 61 52 51 52 55 51 44 38 32 26 24 20 17 17 19 24 24 24 26
Wind_Direction_850mb
215 220 227 221 216 217 224 227 228 237 243 254 263 275 292 309 320 327 332 340 332 313
215 220 226 222 222 222 228 230 232 238 239 248 264 275 292 304 315 321 323 326 331 322
215 221 224 225 227 221 229 228 231 232 239 247 264 274 286 299 310 315 315 315 316 310
212 217 222 225 227 221 227 232 231 232 237 247 259 268 283 297 304 306 305 305 304 307
213 216 220 222 221 221 227 233 233 231 238 247 255 263 279 292 295 298 298 297 301 312
214 216 221 220 218 222 225 231 226 229 239 248 253 260 276 287 290 286 286 291 307 321
217 219 221 223 224 223 224 225 222 227 236 245 247 260 271 276 275 283 286 295 302 320
221 223 223 223 226 224 220 217 221 228 235 243 247 259 269 275 273 277 280 290 302 315
219 223 224 223 223 217 214 216 225 231 237 239 247 255 264 263 267 266 269 281 290 300
220 222 223 221 219 216 216 220 228 233 235 237 243 251 246 244 252 252 259 269 275 296
221 220 218 217 217 217 221 230 233 233 231 234 240 243 243 235 240 244 258 267 275 289
219 218 216 217 223 222 224 226 228 228 231 233 242 246 239 238 237 251 264 267 265 271
219 218 217 219 223 232 237 230 224 226 230 234 240 242 240 241 244 254 263 265 271 278
217 218 221 222 221 236 234 221 221 225 231 235 237 242 239 245 242 255 262 269 279 284